Weather History for Anoka County, MN

Change the Weather History Date:

Wednesday, March 26, 2014

  Actual Average Record
Temperature  
Mean Temperature 25 °F -  
Max Temperature 42 °F 43 °F 80 °F (2007)
Min Temperature 8 °F 26 °F 8 °F (2014)
Degree Days  
Heating Degree Days 40    
Moisture  
Dew Point 15 °F    
Average Humidity 71    
Maximum Humidity 92    
Minimum Humidity 48    
Precipitation  
Precipitation 0.00 in - - ()
Sea Level Pressure  
Sea Level Pressure 29.91 in    
Wind  
Wind Speed 6 mph (SE)    
Max Wind Speed 26 mph    
Max Gust Speed 34 mph    
Visibility 10 miles    
Events      
Averages and records for this station are not official NWS values.
T = Trace of Precipitation, MM = Missing Value Source: NWS Daily Summary

Daily Weather History Graph

Daily Weather History Graph

Search for Another Location

Airport:

Trip Planner

Search our weather history database for the weather conditions in past years. The results will help you decide how hot, cold, wet, or windy it might be!

Date:

Astronomy

Mar. 26, 2014 Rise Set
Actual Time 7:04 AM CDT 7:33 PM CDT
Civil Twilight 6:35 AM CDT 8:02 PM CDT
Nautical Twilight 6:00 AM CDT 8:37 PM CDT
Astronomical Twilight 5:24 AM CDT 9:13 PM CDT
Moon 4:25 AM CDT (3/26) 3:01 PM CDT (3/26)
Length of Visible Light 13h 27m
Length of Day
12h 28m
Waning Crescent, 21% of the Moon is Illuminated
Mar 26
Waning Crescent
Mar 30
New
Apr 7
First Quarter
Apr 15
Full
Apr 22
Last Quarter

Hourly Weather History & Observations

Time (CDT) Temp. Windchill Dew Point Humidity Pressure Visibility Wind Dir Wind Speed Gust Speed Precip Events Conditions
12:15 AM 12.2 °F - 6.8 °F 79% 30.15 in 10.0 mi Calm Calm - N/A   Clear
12:36 AM 12.2 °F - 8.6 °F 85% 30.14 in 10.0 mi Calm Calm - N/A   Clear
12:55 AM 10.4 °F - 6.8 °F 85% 30.14 in 10.0 mi Calm Calm - N/A   Clear
1:15 AM 10.4 °F - 6.8 °F 85% 30.14 in 10.0 mi Calm Calm - N/A   Clear
1:36 AM 10.4 °F - 6.8 °F 85% 30.13 in 10.0 mi Calm Calm - N/A   Clear
1:55 AM 8.6 °F - 5.0 °F 85% 30.13 in 10.0 mi Calm Calm - N/A   Clear
2:15 AM 8.6 °F - 6.8 °F 92% 30.13 in 10.0 mi Calm Calm - N/A   Clear
2:36 AM 8.6 °F 2.0 °F 6.8 °F 92% 30.13 in 10.0 mi SE 3.5 mph - N/A   Clear
2:55 AM 8.6 °F 0.1 °F 6.8 °F 92% 30.13 in 10.0 mi SE 4.6 mph - N/A   Clear
3:15 AM 10.4 °F 4.0 °F 6.8 °F 85% 30.12 in 10.0 mi SE 3.5 mph - N/A   Clear
3:35 AM 10.4 °F 4.0 °F 6.8 °F 85% 30.12 in 10.0 mi SSE 3.5 mph - N/A   Clear
3:55 AM 12.2 °F 6.1 °F 8.6 °F 85% 30.11 in 10.0 mi SSE 3.5 mph - N/A   Clear
4:15 AM 12.2 °F 6.1 °F 8.6 °F 85% 30.11 in 10.0 mi SE 3.5 mph - N/A   Clear
4:35 AM 12.2 °F 6.1 °F 8.6 °F 85% 30.11 in 10.0 mi SE 3.5 mph - N/A   Clear
4:55 AM 12.2 °F 4.3 °F 8.6 °F 85% 30.10 in 10.0 mi SE 4.6 mph - N/A   Clear
5:15 AM 12.2 °F 2.9 °F 8.6 °F 85% 30.09 in 10.0 mi SE 5.8 mph - N/A   Clear
5:35 AM 12.2 °F 2.9 °F 8.6 °F 85% 30.09 in 10.0 mi SSE 5.8 mph - N/A   Clear
5:55 AM 15.8 °F 7.2 °F 10.4 °F 79% 30.09 in 10.0 mi SSE 5.8 mph - N/A   Clear
6:15 AM 15.8 °F 8.6 °F 10.4 °F 79% 30.08 in 10.0 mi SE 4.6 mph - N/A   Clear
6:36 AM 15.8 °F 6.1 °F 10.4 °F 79% 30.08 in 10.0 mi SE 6.9 mph - N/A   Clear
6:55 AM 15.8 °F 6.1 °F 10.4 °F 79% 30.08 in 10.0 mi SE 6.9 mph - N/A   Clear
7:45 AM 19.4 °F 9.5 °F 12.2 °F 74% 30.08 in 10.0 mi SE 8.1 mph - N/A   Overcast
12:45 PM 33.8 °F 23.5 °F 17.6 °F 52% 29.90 in 10.0 mi SSE 16.1 mph 25.3 mph N/A   Mostly Cloudy
1:45 PM 35.6 °F 23.4 °F 17.6 °F 48% 29.83 in 10.0 mi SSE 25.3 mph 32.2 mph N/A   Scattered Clouds
2:55 PM 37.4 °F 26.6 °F 19.4 °F 48% 29.79 in 10.0 mi SSE 21.9 mph 29.9 mph N/A   Mostly Cloudy
3:45 PM 39.2 °F 28.0 °F 21.2 °F 49% 29.76 in 10.0 mi SE 26.5 mph 34.5 mph N/A   Mostly Cloudy
4:50 PM 41.0 °F 32.5 °F 23.0 °F 49% 29.72 in 10.0 mi SE 17.3 mph 28.8 mph N/A   Clear
5:45 PM 41.0 °F 30.9 °F 24.8 °F 53% 29.71 in 10.0 mi SSE 24.2 mph 32.2 mph N/A   Mostly Cloudy
6:55 PM 39.2 °F 30.5 °F 24.8 °F 56% 29.68 in 10.0 mi SE 16.1 mph 25.3 mph N/A   Mostly Cloudy
7:45 PM 39.2 °F 29.6 °F 24.8 °F 56% 29.64 in 10.0 mi SE 19.6 mph 25.3 mph N/A   Mostly Cloudy
8:45 PM 39.2 °F 29.6 °F 24.8 °F 56% 29.62 in 10.0 mi SE 19.6 mph 26.5 mph N/A   Mostly Cloudy
9:15 PM 39.2 °F 30.5 °F 24.8 °F 56% 29.61 in 10.0 mi SE 16.1 mph 24.2 mph N/A   Mostly Cloudy
9:35 PM 39.2 °F 29.8 °F 24.8 °F 56% 29.61 in 10.0 mi SE 18.4 mph 25.3 mph N/A   Overcast
9:55 PM 39.2 °F 30.8 °F 24.8 °F 56% 29.61 in 10.0 mi SE 15.0 mph 23.0 mph N/A   Overcast
10:15 PM 39.2 °F 30.8 °F 24.8 °F 56% 29.61 in 10.0 mi SE 15.0 mph 20.7 mph N/A   Overcast
10:36 PM 39.2 °F 31.6 °F 24.8 °F 56% 29.60 in 10.0 mi SE 12.7 mph 17.3 mph N/A   Overcast
10:55 PM 39.2 °F 29.8 °F 26.6 °F 61% 29.60 in 10.0 mi SE 18.4 mph 25.3 mph N/A   Overcast
11:15 PM 41.0 °F 33.1 °F 26.6 °F 57% 29.59 in 10.0 mi SE 15.0 mph 20.7 mph N/A   Overcast
11:36 PM 42.8 °F 35.4 °F 26.6 °F 53% 29.58 in 10.0 mi SSE 15.0 mph 24.2 mph N/A   Overcast
11:55 PM 42.8 °F 34.8 °F 26.6 °F 53% 29.57 in 10.0 mi SSE 17.3 mph 25.3 mph N/A   Overcast